Location: Campestrin
(46.4667°N, 11.7167°E)
Time: 06:47:30
(UTC+00:00)

Cosmos 2237 Rocket - Pass Details

Date: 18 April 2021
Orbit: 836 x 849 km, 71.0° (Epoch: 15 May)

Event Time Altitude Azimuth Distance (km) Brightness Sun altitude
Rises 21:18:43 0° 324° (NW) 3,402 6.7 -27.0°
Reaches altitude 10° 21:21:28 10° 313° (NW) 2,461 5.5 -27.3°
Maximum altitude 21:26:09 28° 257° (WSW) 1,537 3.6 -27.7°
Enters shadow 21:27:13 26° 238° (WSW) 1,596 3.6 -27.8°
